Temperature
6 5 5 5 5 5 5 4 4 3 3 4 4 4 4 4 4 4 4 4 4 4 4 4 3 3 3 3 3 3 3 3 3 4 4 4 4 4
5 5 5 4 4 4 4 4 4 3 3 3 3 3 3 3 3 3 3 3 3 3 3 3 3 3 3 3 3 3 3 3 3 3 3 3 3 3
4 4 4 4 4 4 3 3 3 3 3 3 3 3 3 3 3 3 3 3 3 3 2 2 2 2 2 2 2 2 2 2 2 2 2 3 3 3
4 4 4 3 3 3 3 3 3 2 2 2 2 2 2 2 2 2 2 2 2 2 2 2 2 2 2 1 1 1 1 1 1 2 2 2 2 2
3 3 3 3 3 2 2 2 2 2 2 1 1 1 1 1 1 2 2 2 2 2 1 1 1 1 1 1 1 1 1 1 1 1 1 1 1 1
3 2 2 2 2 2 2 1 1 1 1 1 1 1 1 1 1 1 1 1 1 1 1 1 1 0 0 0 0 0 0 0 0 0 0 0 0 1
2 2 2 1 1 1 1 1 1 0 0 0 0 -0 -0 -0 -0 -0 -0 -0 0 0 0 0 0 0 0 -0 -0 -0 -0 -0 -0 -0 -0 -0 -0 -0
1 1 1 1 1 1 0 0 -0 -0 -0 -0 -0 -1 -1 -1 -1 -1 -1 -1 -1 -1 -1 -0 -1 -0 -0 -1 -1 -1 -1 -1 -1 -1 -1 -1 -1 -1
1 1 1 1 0 0 -0 -0 -0 -1 -1 -1 -1 -1 -1 -1 -2 -2 -2 -2 -2 -1 -2 -1 -1 -1 -1 -1 -1 -1 -1 -1 -1 -1 -2 -2 -1 -1
-0 -0 -0 -0 -0 -1 -1 -1 -1 -1 -1 -1 -2 -2 -2 -2 -2 -2 -3 -3 -2 -2 -2 -2 -2 -2 -1 -1 -1 -2 -2 -2 -2 -2 -2 -2 -2 -2
-1 -1 -1 -1 -1 -2 -2 -1 -1 -2 -2 -2 -2 -2 -2 -3 -3 -3 -3 -3 -3 -3 -3 -3 -3 -3 -2 -2 -2 -2 -2 -2 -2 -3 -3 -3 -2 -2
-1 -2 -2 -2 -2 -2 -2 -2 -2 -2 -2 -2 -2 -3 -3 -3 -3 -3 -4 -4 -4 -4 -3 -4 -4 -4 -4 -3 -3 -3 -3 -3 -3 -3 -3 -3 -3 -3
-2 -2 -2 -2 -3 -3 -3 -3 -3 -3 -3 -3 -3 -3 -3 -3 -4 -4 -4 -4 -4 -4 -4 -5 -5 -5 -5 -5 -3 -3 -3 -3 -3 -3 -3 -3 -3 -3
-3 -3 -3 -3 -3 -3 -4 -4 -4 -4 -4 -4 -4 -4 -4 -4 -4 -4 -4 -4 -4 -4 -4 -5 -5 -5 -5 -5 -5 -4 -3 -4 -4 -4 -3 -3 -3 -3
-3 -3 -3 -4 -4 -4 -4 -4 -4 -4 -5 -5 -4 -4 -5 -5 -5 -5 -5 -5 -5 -5 -5 -5 -5 -5 -5 -5 -5 -5 -4 -4 -4 -4 -4 -4 -4 -4
-4 -4 -4 -4 -4 -4 -5 -5 -5 -5 -5 -5 -5 -5 -5 -5 -5 -5 -5 -5 -5 -5 -5 -5 -5 -6 -6 -5 -5 -5 -5 -5 -5 -5 -5 -4 -4 -4
-4 -4 -4 -5 -5 -5 -5 -5 -5 -5 -5 -6 -6 -6 -6 -6 -6 -6 -6 -6 -6 -6 -5 -6 -6 -6 -6 -6 -6 -5 -6 -5 -5 -5 -5 -5 -4 -4
-5 -5 -5 -5 -5 -5 -5 -5 -6 -6 -6 -6 -6 -6 -7 -7 -7 -6 -7 -7 -6 -6 -6 -6 -6 -6 -6 -6 -6 -6 -6 -6 -6 -6 -6 -6 -5 -5
-5 -5 -5 -6 -6 -6 -6 -6 -6 -6 -6 -7 -7 -7 -7 -7 -7 -7 -7 -7 -7 -7 -7 -7 -7 -7 -7 -7 -6 -6 -6 -6 -6 -6 -6 -6 -6 -5
-6 -6 -6 -6 -6 -6 -6 -6 -7 -7 -7 -7 -7 -7 -7 -7 -7 -7 -7 -7 -7 -7 -7 -7 -7 -7 -7 -7 -7 -7 -6 -7 -7 -6 -6 -6 -6 -6
-6 -6 -6 -6 -7 -7 -7 -7 -7 -7 -7 -7 -7 -7 -8 -8 -8 -8 -8 -7 -8 -8 -8 -7 -7 -7 -7 -8 -7 -7 -6 -7 -7 -7 -7 -7 -6 -6
-6 -7 -7 -7 -7 -7 -7 -7 -7 -7 -7 -7 -8 -8 -8 -8 -8 -8 -8 -8 -8 -8 -8 -8 -7 -7 -7 -8 -8 -7 -7 -7 -7 -7 -7 -7 -7 -7
-7 -7 -7 -7 -7 -7 -7 -7 -7 -8 -8 -8 -8 -8 -8 -8 -8 -8 -8 -8 -8 -8 -8 -8 -8 -8 -8 -8 -8 -8 -7 -7 -7 -7 -7 -7 -7 -7
Wind_Speed
3 3 3 2 2 2 2 3 3 3 4 3 2 2 4 4 5 5 6 7 8 8 8 8 9 9 9 10 10 11 11 11 12 13 13 14 14 14
2 3 2 2 2 2 2 2 2 3 3 3 3 3 4 4 5 5 6 7 8 8 9 9 8 9 9 10 10 11 11 12 13 13 13 13 13 13
1 2 2 2 2 2 2 2 2 2 4 3 2 2 2 3 5 6 6 7 8 9 9 9 9 9 9 10 10 11 11 12 12 12 12 13 13 13
1 1 1 1 1 1 1 2 2 2 3 4 3 2 3 3 3 4 5 6 7 9 10 10 9 9 10 10 10 10 11 11 12 11 11 12 13 13
1 1 2 2 2 2 2 2 2 2 2 3 4 3 2 3 3 4 4 4 6 8 9 9 9 10 10 10 10 10 10 10 11 12 11 11 12 13
1 2 2 3 3 3 3 3 3 2 2 3 4 3 3 3 2 3 4 3 4 6 7 8 9 10 10 10 10 10 10 11 11 11 12 12 12 12
1 1 2 2 3 3 3 2 3 3 3 3 4 3 3 3 3 3 4 4 4 3 3 5 5 5 7 9 10 10 11 11 11 11 11 11 11 11
1 2 2 2 3 4 5 5 4 4 4 4 4 5 5 4 4 4 4 4 4 2 3 5 3 5 5 7 10 11 11 11 11 11 11 11 11 11
2 2 2 3 3 3 4 6 6 7 7 5 6 6 6 5 5 5 5 6 6 4 3 6 4 5 6 9 11 11 11 11 11 11 11 11 11 11
3 3 3 3 4 3 3 4 4 5 6 5 5 6 6 5 6 6 6 5 5 4 3 5 4 4 5 6 10 10 10 10 11 11 11 11 12 12
3 3 3 3 6 6 3 4 5 5 7 8 9 9 9 9 7 3 3 4 6 4 3 3 3 4 4 5 6 8 9 10 11 11 12 12 12 12
2 3 5 5 7 7 3 3 5 5 5 5 6 6 6 6 7 5 4 5 5 4 2 2 2 2 3 3 3 4 6 9 12 12 12 11 11 8
3 3 4 7 8 7 6 3 5 5 3 3 4 4 3 3 4 4 5 5 6 5 3 2 3 3 3 4 4 4 4 5 6 8 10 11 11 8
4 4 5 8 7 7 6 6 7 5 2 3 3 4 4 4 3 4 5 5 6 7 6 5 4 4 4 5 5 3 3 4 5 5 5 9 9 10
3 6 7 7 6 5 7 7 5 3 3 3 4 4 4 4 4 3 4 4 5 6 6 6 5 4 5 5 5 4 4 4 4 4 4 5 5 5
3 5 7 6 4 5 5 4 3 3 3 4 4 4 4 3 4 3 3 3 3 4 4 6 6 5 5 5 6 6 5 4 4 4 5 5 5 5
2 1 2 2 3 3 3 3 3 3 4 4 4 4 4 4 4 3 3 3 4 5 4 3 3 4 5 5 5 6 6 5 5 5 5 6 5 6
3 2 3 3 4 4 4 4 3 4 4 4 4 4 4 5 5 4 4 4 5 5 4 3 2 3 3 3 6 6 5 5 5 5 4 5 6 5
3 3 3 3 3 4 4 4 4 4 4 4 5 4 4 4 4 4 4 4 4 4 4 3 3 3 4 6 4 5 4 4 4 4 4 5 6 6
3 3 3 3 3 4 4 4 4 4 4 4 4 5 4 4 5 5 4 4 5 4 4 4 4 4 5 5 4 4 7 5 4 5 5 4 4 6
3 3 3 4 4 4 4 4 4 4 4 4 4 5 4 4 5 5 5 6 5 4 5 5 5 6 3 2 4 4 4 6 6 5 4 4 4 4
4 4 4 4 4 4 4 4 4 4 4 4 4 4 4 4 5 5 5 5 5 4 5 4 3 3 2 3 5 5 5 4 5 7 7 6 3 3
4 4 4 4 4 4 4 4 5 5 4 4 4 4 4 4 4 5 5 5 4 4 4 4 3 2 3 3 4 4 5 5 4 4 4 5 6 7
Wind_Direction
202 196 197 205 197 195 182 177 187 234 257 254 264 277 286 278 280 278 279 284 287 289 287 285 287 288 290 292 294 296 296 298 299 297 294 294 295 294
196 185 202 216 207 198 189 187 190 210 244 251 253 277 285 295 287 286 278 286 284 286 285 284 283 283 287 292 294 298 299 299 298 296 294 294 293 294
159 187 213 219 211 216 203 196 205 210 248 273 266 277 272 280 297 290 286 277 278 283 282 284 285 287 292 293 297 300 300 301 301 300 297 296 298 296
197 183 209 215 210 221 210 220 236 236 237 266 281 280 274 269 276 282 296 287 279 283 285 285 286 289 295 297 298 299 300 300 303 304 304 301 298 298
202 205 216 197 226 239 223 221 235 258 245 257 276 277 277 276 288 295 293 293 293 292 291 287 289 290 293 295 298 299 300 300 300 302 304 307 307 304
204 221 224 211 218 231 235 228 236 245 246 254 267 271 267 270 272 285 298 294 295 298 288 287 291 291 291 293 296 295 294 295 297 298 299 300 303 305
257 256 253 261 256 250 252 233 231 236 242 251 264 275 272 272 266 260 282 294 288 272 276 278 284 283 284 286 288 288 289 291 293 294 296 297 298 299
254 281 281 275 278 286 284 276 262 248 241 244 256 257 263 259 259 268 278 290 288 258 278 282 264 273 275 272 280 285 288 292 292 294 295 295 296 297
239 260 286 290 292 266 280 286 278 275 266 255 250 254 257 250 252 262 262 269 272 271 278 280 271 270 272 276 281 284 288 291 292 293 296 297 296 297
241 244 250 265 273 271 262 264 263 268 271 266 252 255 255 249 238 249 257 268 276 264 241 268 274 271 281 281 281 283 289 290 293 295 295 295 296 295
254 255 260 258 285 297 284 272 276 279 281 276 276 277 279 276 268 257 256 267 280 275 239 243 269 290 286 272 274 287 294 295 296 297 297 296 296 295
262 266 277 280 286 295 278 260 269 275 280 289 290 294 290 276 268 243 236 254 273 272 228 243 265 298 296 272 265 289 296 294 295 294 294 293 296 297
255 260 265 284 290 296 298 266 275 293 278 278 282 282 282 270 261 253 242 241 254 262 243 241 258 263 262 284 289 273 270 276 287 287 290 293 293 290
248 253 261 279 286 294 298 292 298 305 289 286 284 283 280 278 275 274 264 258 256 258 247 235 246 249 262 276 280 283 276 268 266 272 278 290 292 289
258 270 277 280 284 283 289 295 301 288 277 278 279 280 278 275 279 283 282 278 278 273 258 246 240 246 250 260 269 275 286 280 261 264 273 276 275 281
273 277 280 282 281 279 285 290 284 273 276 271 278 282 287 286 279 274 276 283 286 285 276 263 246 241 255 258 259 268 266 263 272 273 277 276 271 266
259 262 260 259 262 264 268 273 272 278 281 276 276 284 287 286 286 282 273 275 270 274 285 290 281 268 255 252 259 258 261 268 270 274 281 284 277 264
255 253 258 253 255 264 270 274 267 266 269 272 273 273 280 283 287 286 279 271 273 274 275 279 290 311 310 286 243 248 257 265 275 273 271 277 284 278
256 255 259 262 263 266 267 268 268 266 267 267 270 270 274 278 279 278 277 276 275 274 273 269 264 268 281 287 278 243 251 269 276 278 271 265 273 280
252 255 260 266 268 270 272 274 273 271 270 272 271 267 266 272 275 275 272 271 275 278 280 275 259 253 256 269 276 279 266 262 267 274 277 276 276 282
258 261 263 267 270 270 271 271 269 269 269 271 272 270 265 265 269 271 273 277 277 271 270 272 269 276 275 271 278 281 279 272 272 272 273 281 288 289
255 259 262 264 266 265 266 267 268 268 268 268 270 270 268 265 266 267 268 271 272 269 271 279 284 285 264 257 268 278 291 303 303 295 277 265 258 259
257 259 260 263 262 261 261 262 264 267 267 268 269 268 266 267 266 265 266 266 268 271 276 284 294 290 276 266 269 278 286 297 304 313 304 299 291 278
Height
1493 1494 1495 1496 1497 1498 1499 1499 1500 1499 1498 1498 1499 1499 1499 1498 1497 1497 1496 1495 1494 1493 1492 1492 1491 1490 1489 1488 1486 1485 1484 1482 1480 1478 1477 1476 1475 1474
1488 1489 1491 1492 1493 1493 1494 1495 1495 1496 1495 1494 1494 1494 1494 1494 1493 1493 1492 1491 1490 1489 1488 1487 1486 1485 1484 1483 1481 1480 1478 1477 1475 1473 1472 1471 1470 1469
1485 1485 1486 1487 1488 1489 1489 1490 1490 1491 1490 1489 1490 1490 1490 1489 1488 1488 1487 1486 1485 1484 1483 1483 1482 1480 1479 1478 1476 1475 1473 1472 1470 1468 1466 1465 1464 1463
1481 1481 1482 1483 1484 1484 1484 1485 1486 1486 1486 1485 1485 1485 1485 1484 1483 1483 1482 1481 1480 1479 1479 1478 1477 1475 1474 1473 1471 1470 1468 1467 1465 1463 1461 1459 1459 1457
1477 1477 1478 1478 1479 1479 1480 1480 1481 1481 1481 1480 1480 1480 1480 1479 1478 1478 1477 1476 1475 1474 1473 1472 1471 1470 1469 1468 1466 1465 1463 1462 1460 1458 1456 1454 1453 1452
1474 1474 1474 1474 1475 1475 1475 1476 1476 1476 1476 1476 1475 1475 1475 1474 1473 1472 1470 1470 1469 1469 1468 1467 1466 1465 1464 1462 1461 1460 1458 1457 1455 1453 1451 1449 1448 1446
1471 1471 1471 1470 1470 1471 1471 1471 1472 1471 1471 1471 1470 1470 1470 1469 1468 1467 1465 1464 1463 1463 1462 1461 1460 1459 1458 1457 1456 1454 1453 1451 1450 1448 1446 1445 1443 1442
1467 1467 1467 1467 1466 1466 1467 1467 1467 1467 1466 1466 1465 1465 1464 1464 1464 1462 1461 1459 1457 1458 1456 1455 1455 1453 1453 1452 1450 1449 1448 1446 1445 1443 1441 1440 1438 1437
1463 1463 1463 1463 1463 1462 1462 1462 1463 1463 1463 1462 1461 1460 1459 1459 1459 1457 1456 1455 1453 1452 1451 1448 1449 1447 1447 1446 1445 1443 1442 1441 1439 1438 1436 1435 1433 1432
1460 1459 1459 1459 1459 1458 1458 1457 1457 1457 1457 1456 1456 1455 1455 1454 1454 1453 1451 1449 1448 1447 1447 1444 1442 1442 1441 1440 1439 1438 1437 1435 1434 1432 1431 1429 1428 1427
1456 1456 1455 1455 1455 1454 1454 1453 1452 1452 1452 1451 1450 1450 1449 1448 1448 1447 1445 1444 1441 1440 1441 1439 1437 1436 1434 1433 1433 1432 1431 1430 1429 1427 1426 1424 1423 1421
1452 1452 1452 1451 1451 1450 1449 1448 1447 1447 1446 1445 1444 1444 1443 1443 1442 1441 1440 1439 1436 1435 1434 1434 1432 1431 1428 1427 1427 1427 1426 1425 1424 1422 1420 1419 1418 1416
1448 1448 1447 1447 1446 1446 1445 1444 1443 1442 1441 1440 1439 1438 1437 1437 1436 1435 1435 1434 1432 1430 1430 1430 1428 1427 1426 1422 1421 1421 1421 1419 1418 1417 1415 1414 1413 1411
1444 1443 1442 1442 1441 1441 1440 1440 1439 1438 1436 1435 1434 1432 1431 1431 1430 1429 1429 1428 1427 1426 1425 1424 1423 1422 1420 1417 1416 1415 1415 1414 1413 1412 1410 1409 1408 1406
1439 1439 1438 1437 1436 1436 1436 1435 1434 1433 1432 1430 1429 1428 1427 1426 1425 1424 1423 1422 1421 1421 1420 1419 1418 1416 1415 1413 1411 1410 1409 1408 1408 1407 1405 1404 1402 1401
1434 1434 1433 1433 1432 1432 1431 1430 1429 1428 1427 1426 1425 1423 1422 1421 1420 1419 1418 1417 1415 1414 1414 1413 1412 1411 1409 1408 1407 1405 1405 1403 1402 1401 1400 1398 1397 1396
1430 1429 1428 1428 1427 1427 1426 1425 1425 1424 1423 1422 1421 1419 1418 1416 1415 1414 1413 1412 1411 1409 1408 1407 1407 1406 1405 1403 1401 1400 1399 1398 1397 1396 1395 1393 1392 1391
1426 1424 1423 1423 1422 1422 1421 1421 1420 1419 1418 1417 1416 1415 1413 1412 1411 1410 1409 1407 1406 1404 1403 1402 1401 1400 1399 1398 1398 1396 1395 1394 1393 1391 1390 1388 1386 1386
1421 1420 1419 1418 1418 1417 1417 1416 1415 1415 1414 1413 1412 1410 1409 1408 1407 1406 1404 1403 1401 1400 1399 1398 1397 1396 1394 1392 1392 1392 1390 1389 1388 1386 1385 1384 1382 1380
1416 1416 1415 1414 1414 1413 1412 1412 1411 1410 1409 1408 1407 1406 1405 1404 1402 1401 1400 1399 1397 1396 1395 1394 1394 1393 1391 1390 1388 1386 1387 1385 1383 1381 1380 1379 1377 1377
1412 1411 1411 1410 1410 1409 1408 1407 1406 1405 1404 1403 1402 1401 1400 1399 1398 1397 1396 1394 1394 1392 1391 1390 1390 1389 1388 1387 1384 1382 1382 1381 1380 1378 1376 1375 1373 1371
1408 1407 1406 1406 1405 1405 1404 1403 1402 1401 1400 1399 1398 1397 1396 1395 1394 1393 1392 1391 1390 1389 1387 1386 1386 1385 1384 1382 1380 1379 1377 1376 1376 1374 1373 1372 1370 1368
1403 1403 1402 1402 1401 1400 1399 1399 1398 1397 1396 1395 1394 1393 1392 1391 1390 1389 1388 1387 1386 1385 1384 1383 1382 1381 1380 1379 1377 1376 1374 1373 1371 1370 1369 1369 1368 1366